{"data":{"norad_id":61571,"intl_designator":"2024-186A","name":"GAOFEN-12 05","alt_names":[],"object_type":"PAYLOAD","status":"ACTIVE","operator":null,"country":"PRC","launch_date":"2024-10-15","launch_site_code":"JSC","launch_vehicle":null,"mission":null,"orbit_class":"UNKNOWN","rcs_meters":null,"size_class":null,"mass_kg":null,"dimensions":null,"purposes":[],"wikipedia_slug":null,"has_3d_model":false,"image_url":null,"decayed_at":null,"tle_current":{"epoch":"2026-05-25T03:57:50.054688Z","epoch_age_seconds":71163,"freshness":"FRESH","line1":"1 61571U 24186A   26145.16516267  .00000330  00000+0  49388-4 0  9994","line2":"2 61571  97.9097 153.6141 0001711  60.9398 299.1986 14.80935907 85934","mean_motion":14.80935907,"eccentricity":0.0001711,"inclination_deg":97.9097,"raan_deg":153.6141,"arg_perigee_deg":60.9398,"mean_anomaly_deg":299.1986,"bstar":4.9388e-5,"rev_number":8593,"period_min":97.235808328604,"perigee_km":625.17301569908,"apogee_km":627.56995850336,"semimajor_km":7004.5084871012,"source":"CELESTRAK","updated_at":"2026-05-25T13:38:02.417963Z"}}}